Location: Morisset
(33.1080°S, 151.4871°E)
Time: 08:59:07
(UTC+00:00)

BREEZE-M DEB (TANK) - Pass Details

Date: 29 October 2020
Orbit: 359 x 16369 km, 49.4° (Epoch: 27 November)

Event Time Altitude Azimuth Distance (km) Brightness Sun altitude
Rises 18:20:56 0° 229° (SW) 10,293 8.5 -7.9°
Reaches altitude 10° 18:31:26 10° 233° (SW) 6,682 7.5 -5.8°
Maximum altitude 18:44:30 36° 293° (WNW) 1,836 4.5 -3.3°
Drops below altitude 10° 18:48:42 10° 1° (N) 2,127 5.1 -2.4°
Sets 18:50:15 0° 12° (NNE) 2,698 5.8 -2.1°
